Location: Peebles
(55.6412°N, 3.1714°W)
Time: 14:09:25
(UTC+01:00)

Cosmos 1400 Rocket - Pass Details

Date: 26 September 2021
Orbit: 520 x 567 km, 81.2° (Epoch: 17 October)

Event Time Altitude Azimuth Distance (km) Brightness Sun altitude
Rises 20:38:57 0° 208° (SSW) 2,738 6.5 -14.5°
Reaches altitude 10° 20:41:12 10° 215° (SW) 1,840 5.7 -14.8°
Maximum altitude 20:45:08 48° 290° (WNW) 734 3.9 -15.3°
Drops below altitude 10° 20:49:02 10° 5° (N) 1,827 5.7 -15.8°
Sets 20:51:16 0° 12° (NNE) 2,717 6.5 -16.1°
